[[{"header":{"parameterUnit":"m.s-1","parameterCategory":1,"la1":30.2991,"la2":30.254,"lo1":-89.0895,"lo2":-89.0444,"dy":0.0017,"dx":0.0017,"nx":28,"ny":28,"refTime":"2024-12-07T09:00:00:Z","depth":0,"parameterNumber":2,"parameterNumberName":"U-component_of_WINDS"},"data":[0,0,0,0,0,0,0,0,0,0,0,0,0,0,0,0,0,0,0,0,0,0,0,0,0,0,0,0,0,0,0,0,0,0,0,0,0,0,0,0,0,0,0,0,0,0,0,0,0,0,0,0,0,0,0,0,0,0,-2.224,-2.2242,0,-2.2362,-2.2364,-2.2365,-2.2376,-2.2374,-2.2373,-2.2372,-2.2498,-2.2502,-2.2507,0,0,0,0,0,0,0,0,0,0,0,0,0,-2.2019,-2.2023,-2.224,-2.2242,-2.2243,-2.2362,-2.2364,-2.2365,-2.2376,-2.2374,-2.2373,-2.2371,-2.2496,-2.2502,-2.2507,0,0,0,0,0,0,0,0,0,0,0,0,0,-2.2125,-2.2024,-2.224,-2.2263,-2.2266,-2.2362,-2.2364,-2.2366,-2.2376,-2.2374,-2.2372,-2.237,-2.2495,-2.2501,-2.2508,-2.259,0,0,-2.2529,-2.2532,0,0,0,0,0,0,0,0,-2.2119,-2.2133,-2.2258,-2.2261,-2.2265,-2.2352,-2.2332,-2.2441,-2.2377,-2.2334,-2.2372,-2.2369,-2.2451,-2.2461,-2.2489,-2.2596,-2.2601,-2.253,-2.2534,-2.2537,-2.2539,0,0,0,0,0,0,0,-2.2112,-2.2128,-2.2289,-2.226,-2.2264,-2.2268,-2.2281,-2.2353,-2.2402,-2.2338,-2.2339,-2.2353,-2.2453,-2.2482,-2.2492,-2.2603,-2.253,-2.2536,-2.254,-2.2543,-2.2783,-2.2785,0,0,0,0,0,0,-2.21,-2.2122,-2.2285,-2.2292,-2.2186,-2.2273,-2.2288,-2.2326,-2.2401,-2.2411,-2.2355,-2.2353,-2.2471,-2.2484,-2.2496,-2.2596,-2.2537,-2.2543,-2.2547,-2.2781,-2.2784,-2.2786,0,0,0,0,0,0,-2.2095,-2.2114,-2.228,-2.2208,-2.2229,-2.2279,-2.2322,-2.2329,-2.2359,-2.2414,-2.2423,-2.2375,-2.247,-2.2486,-2.2566,-2.26,-2.2546,-2.2553,-2.2778,-2.2782,-2.2785,-2.2796,0,0,0,0,0,0,-2.2089,-2.2113,-2.2143,-2.2208,-2.2233,-2.2347,-2.2324,-2.2333,-2.237,-2.2369,-2.2436,-2.2445,-2.247,-2.2556,-2.2573,-2.2609,-2.2558,-2.2775,-2.278,-2.2784,-2.2793,-2.2799,-2.2805,0,0,0,0,0,-2.2081,-2.2142,-2.2145,-2.2164,-2.2272,-2.2349,-2.2363,-2.239,-2.2373,-2.2405,-2.2441,-2.2443,-2.2594,-2.2564,-2.2583,-2.2622,-2.2773,-2.2779,-2.2783,-2.279,-2.2798,-2.2805,0,0,0,0,0,0,-2.208,-2.2151,-2.2155,-2.2239,-2.2288,-2.2351,-2.2391,-2.2398,-2.2453,-2.245,-2.2482,-2.2497,-2.2575,-2.2607,-2.2572,-2.2705,-2.2682,-2.2691,-2.268,-2.2689,-2.2695,-2.2684,-2.2564,0,0,0,0,0,-2.209,-2.2146,-2.2205,-2.2273,-2.2298,-2.234,-2.2375,-2.2392,-2.2444,-2.2465,-2.2506,-2.2558,-2.2617,-2.2655,-2.2712,-2.2798,-2.2813,-2.2835,-2.2841,-2.2845,-2.2852,-2.29,-2.291,-2.2803,-2.2803,-2.2803,0,0,-2.211,-2.2156,-2.2189,-2.2274,-2.2314,-2.2372,-2.2358,-2.2419,-2.2462,-2.2474,-2.2551,-2.2584,-2.2644,-2.2727,-2.2765,-2.2756,-2.2885,-2.2852,-2.2855,-2.286,-2.2906,-2.2916,-2.2925,-2.2806,-2.2806,-2.2805,0,0,-2.2176,-2.2217,-2.2278,-2.2318,-2.2379,-2.2407,-2.2422,-2.2484,-2.2506,-2.2585,-2.2594,-2.2647,-2.2748,-2.279,-2.2824,-2.2908,-2.2912,-2.2926,-2.2957,-2.3003,-2.3011,-2.3019,-2.3048,-2.3058,-2.2933,-2.2933,-2.2933,0,-2.2193,-2.228,-2.2308,-2.237,-2.2407,-2.242,-2.2483,-2.2521,-2.2598,-2.2623,-2.2611,-2.2739,-2.278,-2.2872,-2.2893,-2.2921,-2.2938,-2.2917,-2.3008,-2.3016,-2.3023,-2.3051,-2.3062,-2.2935,-2.2934,-2.2934,-2.2934,0,-2.2298,-2.2358,-2.2401,-2.2473,-2.2516,-2.2577,-2.2615,-2.2655,-2.2669,-2.2698,-2.2778,-2.2828,-2.2896,-2.292,-2.2934,-2.3015,-2.3007,-2.3001,-2.2979,-2.3034,-2.306,-2.3071,-2.2936,-2.2936,-2.2936,-2.2935,0,0,-2.2364,-2.2453,-2.2468,-2.2501,-2.257,-2.2617,-2.268,-2.2746,-2.2779,-2.2833,-2.2885,-2.2972,-2.2967,-2.3006,-2.3026,-2.3066,-2.3128,-2.3056,-2.3058,-2.3066,-2.3219,-2.3221,-2.3233,-2.3132,-2.3134,-2.3136,-2.3214,0,-2.2437,-2.2547,-2.2575,-2.267,-2.2726,-2.2741,-2.2795,-2.2844,-2.2874,-2.2926,-2.296,-2.302,-2.301,-2.3034,-2.3075,-2.3111,-2.3159,-2.3107,-2.3181,-2.3183,-2.3163,-2.3247,-2.3249,-2.332,-2.3224,-2.3226,-2.3228,0,-2.2535,-2.2589,-2.2689,-2.2751,-2.2776,-2.2824,-2.2887,-2.2937,-2.2993,-2.3012,-2.3056,-2.3072,-2.3138,-2.3114,-2.3206,-2.317,-2.3203,-2.3226,-2.323,-2.3236,-2.3207,-2.3254,-2.3344,-2.3353,-2.3244,-2.3243,-2.3242,0,-2.2571,-2.267,-2.2742,-2.2771,-2.2845,-2.2879,-2.2911,-2.2965,-2.3003,-2.3059,-2.3084,-2.3147,-2.3181,-2.323,-2.3262,-2.3242,-2.3352,-2.333,-2.3369,-2.3368,-2.3389,-2.3387,-2.3483,-2.3414,-2.3414,-2.3413,-2.3413,0,-2.2647,-2.2707,-2.2759,-2.2804,-2.2872,-2.2905,-2.2971,-2.3005,-2.3053,-2.3104,-2.3123,-2.3171,-2.3212,-2.3266,-2.3292,-2.3364,-2.3379,-2.3397,-2.3402,-2.3394,-2.3391,-2.3414,-2.3409,-2.3416,-2.3416,-2.3415,-2.3414,0,-2.2698,-2.2735,-2.2815,-2.2879,-2.2897,-2.2944,-2.3,-2.3044,-2.3075,-2.314,-2.3157,-2.3207,-2.3271,-2.3309,-2.3391,-2.3409,-2.3488,-2.3492,-2.3468,-2.347,-2.3506,-2.3501,-2.3618,-2.3635,-2.3556,-2.3557,-2.3558,0,-2.2743,-2.2789,-2.2859,-2.2894,-2.2927,-2.2984,-2.3023,-2.3058,-2.3098,-2.3166,-2.3202,-2.3267,-2.3321,-2.3424,-2.3467,-2.353,-2.3535,-2.3572,-2.3545,-2.3535,-2.3534,-2.353,-2.3534,-2.3576,-2.3577,-2.3577,-2.3578,0,-2.2818,-2.2834,-2.2889,-2.2951,-2.2997,-2.3048,-2.3098,-2.3126,-2.317,-2.3214,-2.328,-2.3322,-2.3406,-2.347,-2.3537,-2.3572,-2.3582,-2.3587,-2.3598,-2.3589,-2.3572,-2.358,-2.3479,-2.3583,-2.3582,-2.3582,-2.3582,-2.3582,-2.2866,-2.2907,-2.2963,-2.3024,-2.3065,-2.3112,-2.3157,-2.3194,-2.3249,-2.3319,-2.3338,-2.3407,-2.3463,-2.3553,-2.359,-2.3645,-2.3638,-2.3656,-2.366,-2.3663,-2.3663,-2.3565,-2.3657,-2.3657,-2.3657,-2.3657,-2.3657,0,-2.294,-2.2977,-2.3033,-2.3102,-2.315,-2.3157,-2.3213,-2.3253,-2.3313,-2.3365,-2.3418,-2.3494,-2.3557,-2.3606,-2.3672,-2.3706,-2.3713,-2.3722,-2.3718,-2.3726,-2.3666,-2.3648,-2.3716,-2.3715,-2.3715,-2.3715,-2.3715,-2.3715,-2.2984,-2.3055,-2.3078,-2.3171,-2.3208,-2.3275,-2.3306,-2.335,-2.3391,-2.3475,-2.3527,-2.3559,-2.361,-2.3679,-2.3738,-2.3751,-2.3773,-2.3781,-2.3795,-2.3737,-2.373,-2.3724,-2.3708,-2.3786,-2.3787,-2.385,-2.3851,-2.3851]},{"header":{"parameterUnit":"m.s-1","parameterCategory":1,"la1":30.2991,"la2":30.254,"lo1":-89.0895,"lo2":-89.0444,"dy":0.0017,"dx":0.0017,"nx":28,"ny":28,"refTime":"2024-12-07T09:00:00:Z","depth":0,"parameterNumber":3,"parameterNumberName":"V-component_of_WINDS"},"data":[0,0,0,0,0,0,0,0,0,0,0,0,0,0,0,0,0,0,0,0,0,0,0,0,0,0,0,0,0,0,0,0,0,0,0,0,0,0,0,0,0,0,0,0,0,0,0,0,0,0,0,0,0,0,0,0,0,0,1.3667,1.367,0,1.3883,1.3886,1.3888,1.3923,1.3922,1.392,1.3918,1.4137,1.4145,1.4152,0,0,0,0,0,0,0,0,0,0,0,0,0,1.3284,1.3291,1.3667,1.367,1.3672,1.3883,1.3886,1.3889,1.3924,1.3921,1.3919,1.3917,1.4135,1.4144,1.4153,0,0,0,0,0,0,0,0,0,0,0,0,0,1.347,1.3293,1.3667,1.3715,1.3722,1.3882,1.3886,1.3889,1.3924,1.3921,1.3919,1.3916,1.4132,1.4143,1.4154,1.428,0,0,1.4189,1.4194,0,0,0,0,0,0,0,0,1.346,1.3484,1.3705,1.3712,1.372,1.3873,1.3831,1.402,1.3925,1.3847,1.3918,1.3915,1.4052,1.407,1.4116,1.4291,1.43,1.419,1.4197,1.4202,1.4205,0,0,0,0,0,0,0,1.3447,1.3475,1.3752,1.3709,1.3717,1.3726,1.3749,1.3867,1.3963,1.3854,1.3857,1.3882,1.4055,1.4105,1.4122,1.4303,1.419,1.42,1.4207,1.4211,1.4594,1.4597,0,0,0,0,0,0,1.3425,1.3464,1.3746,1.3759,1.358,1.3735,1.3761,1.3827,1.3961,1.3979,1.3884,1.3883,1.4087,1.4108,1.4129,1.4288,1.4202,1.4212,1.4219,1.4591,1.4595,1.4599,0,0,0,0,0,0,1.3417,1.345,1.3737,1.3613,1.365,1.3745,1.3818,1.3833,1.3883,1.3984,1.4001,1.3918,1.4086,1.4113,1.4243,1.4296,1.4217,1.4228,1.4587,1.4592,1.4597,1.4605,0,0,0,0,0,0,1.3406,1.3447,1.3496,1.3613,1.3656,1.3848,1.3821,1.3839,1.3903,1.3903,1.4021,1.4037,1.4086,1.4226,1.4254,1.4311,1.4237,1.4583,1.4589,1.4595,1.4601,1.461,1.4618,0,0,0,0,0,1.3392,1.3489,1.3498,1.3532,1.372,1.385,1.3875,1.3929,1.3906,1.3957,1.4022,1.4034,1.4285,1.4239,1.4271,1.4332,1.458,1.4587,1.4595,1.4597,1.4608,1.4618,0,0,0,0,0,0,1.3374,1.3505,1.3517,1.3655,1.3741,1.3856,1.3922,1.3939,1.4033,1.403,1.4092,1.4118,1.4245,1.4301,1.4247,1.4462,1.4431,1.4445,1.4421,1.4433,1.4441,1.4426,1.4246,0,0,0,0,0,1.3387,1.3482,1.3591,1.3702,1.3745,1.3826,1.3884,1.3919,1.4011,1.4047,1.4122,1.421,1.431,1.4374,1.447,1.4608,1.4635,1.4665,1.4674,1.468,1.4693,1.4772,1.4787,1.4623,1.4623,1.4623,0,0,1.3413,1.3496,1.3553,1.3701,1.3772,1.387,1.3856,1.396,1.4033,1.4063,1.4191,1.4249,1.4351,1.4486,1.4549,1.4537,1.4744,1.469,1.4694,1.4704,1.4781,1.4797,1.481,1.4628,1.4627,1.4627,0,0,1.3512,1.3583,1.3685,1.3757,1.3865,1.3918,1.3942,1.4055,1.4095,1.4224,1.4249,1.4336,1.4505,1.4579,1.4638,1.4764,1.4779,1.4793,1.4839,1.4916,1.4928,1.494,1.4988,1.5004,1.4805,1.4805,1.4805,0,1.3531,1.368,1.3735,1.3839,1.3904,1.3935,1.404,1.4106,1.424,1.4284,1.4267,1.4481,1.4552,1.4706,1.4737,1.4783,1.4813,1.4782,1.4922,1.4935,1.4946,1.4993,1.501,1.4806,1.4806,1.4806,1.4806,0,1.3699,1.3802,1.3871,1.4001,1.4074,1.4177,1.4248,1.4314,1.4342,1.4396,1.4528,1.4614,1.473,1.4768,1.4796,1.4926,1.4915,1.4909,1.488,1.4963,1.5007,1.5025,1.4808,1.4808,1.4807,1.4807,0,0,1.3795,1.3954,1.3979,1.4039,1.4161,1.4241,1.4345,1.446,1.4517,1.4607,1.4697,1.484,1.4836,1.4903,1.4938,1.5005,1.5102,1.4991,1.4995,1.5011,1.5254,1.526,1.528,1.5111,1.5115,1.5118,1.5247,0,1.391,1.4099,1.4152,1.4311,1.4408,1.4439,1.453,1.4615,1.4668,1.4758,1.4816,1.4918,1.4903,1.4944,1.5011,1.5076,1.5152,1.5067,1.5197,1.5201,1.5174,1.5303,1.5309,1.5427,1.5264,1.5267,1.5269,0,1.407,1.4166,1.4336,1.4447,1.4489,1.457,1.468,1.4765,1.4861,1.4895,1.497,1.5,1.511,1.5073,1.5226,1.5167,1.5223,1.5263,1.5269,1.5286,1.5242,1.5326,1.5465,1.5484,1.5297,1.5294,1.5292,0,1.4127,1.4297,1.4422,1.4472,1.4603,1.466,1.4717,1.4811,1.4876,1.4971,1.5015,1.512,1.5179,1.526,1.5318,1.5285,1.5468,1.5434,1.55,1.5499,1.554,1.5537,1.5694,1.5571,1.557,1.557,1.5569,0,1.4252,1.4355,1.4449,1.4526,1.4643,1.4702,1.4815,1.4874,1.4957,1.5046,1.5077,1.5159,1.5229,1.5321,1.5366,1.5488,1.5513,1.5544,1.5556,1.5544,1.554,1.5584,1.5578,1.5575,1.5574,1.5573,1.5572,0,1.4336,1.4402,1.4541,1.4654,1.4685,1.4766,1.4863,1.4939,1.4993,1.5105,1.5135,1.522,1.533,1.5394,1.5532,1.5563,1.5698,1.5704,1.5667,1.5673,1.5736,1.5731,1.5929,1.5959,1.5812,1.5813,1.5815,0,1.4413,1.4493,1.4616,1.4678,1.4737,1.4836,1.4904,1.4964,1.5033,1.5149,1.5211,1.5323,1.5416,1.559,1.5664,1.577,1.5781,1.5843,1.5797,1.5783,1.5786,1.5782,1.5791,1.5852,1.5853,1.5854,1.5855,0,1.4544,1.4573,1.467,1.4779,1.4859,1.4947,1.5035,1.5083,1.5159,1.5234,1.5348,1.542,1.5562,1.5673,1.5785,1.5844,1.5863,1.5868,1.589,1.588,1.5856,1.5873,1.5691,1.5864,1.5863,1.5863,1.5862,1.5862,1.4629,1.4703,1.4801,1.4909,1.4981,1.5062,1.514,1.5204,1.53,1.5422,1.545,1.557,1.5665,1.5818,1.5879,1.5973,1.5963,1.5993,1.6002,1.6009,1.6013,1.5838,1.5993,1.5993,1.5993,1.5993,1.5993,0,1.4764,1.4829,1.4927,1.505,1.5134,1.5144,1.5242,1.5312,1.5417,1.5504,1.5595,1.5726,1.5834,1.5916,1.6027,1.6087,1.6099,1.6114,1.6112,1.6126,1.6014,1.5986,1.6103,1.6103,1.6103,1.6103,1.6103,1.6103,1.4845,1.4972,1.5012,1.5175,1.5239,1.5358,1.5413,1.5489,1.5559,1.5704,1.5795,1.5848,1.5934,1.6051,1.6151,1.6172,1.6213,1.6228,1.6251,1.6145,1.6134,1.6122,1.6096,1.6235,1.6235,1.6355,1.6357,1.6357]}]]